Regional Weather Roundup
Issued by NWS Northern Indiana

Home | Current Version | Previous Version | Text Only | Print | Product List | Glossary Off
Versions: 1 2 3 4 5 6 7 8 9 10 11 12 13 14 15 16 17 18 19 20 21 22 23 24 25 26 27 28 29 30 31 32 33 34 35 36 37 38 39 40 41 42 43 44 45 46 47 48 49 50

000
ASUS43 KIWX 301610
RWRIWX

KIWX WEATHER ROUNDUP
NATIONAL WEATHER SERVICE NORTHERN INDIANA
1200 PM EDT THU JUL 30 2015

NOTE: "FAIR" INDICATES FEW OR NO CLOUDS BELOW 12,000 FEET WITH NO
SIGNIFICANT WEATHER AND/OR OBSTRUCTIONS TO VISIBILITY.

* THESE STATIONS ARE NOT UNDER NWS QUALITY CONTROL. THEY ALSO MAY NOT
  REPORT WEATHER SUCH AS PRECIPITATION OR FOG.

INZ001>027-301700-
NORTHERN INDIANA

CITY           SKY/WX    TMP DP  RH WIND       PRES   REMARKS
GARY*          SUNNY     82  57  42 NW14      30.07S
VALPARAISO     SUNNY     81  55  40 NW8G20    30.08R
MICHIGAN CITY* SUNNY     77  57  50 W8        30.07S
LAPORTE*       SUNNY     82  59  45 NW8       30.08R
KNOX*          SUNNY     79  55  44 NW9G17    30.07R
SOUTH BEND     SUNNY     81  57  43 NW13      30.06S
ELKHART*       SUNNY     81  55  41 NW12G17   30.05S
GOSHEN         SUNNY     79  61  53 NW14      30.05S
MONTICELLO*    SUNNY     80  62  55 NW8       30.08R
LOGANSPORT*    SUNNY     81  52  36 NW7       30.09S
ROCHESTER*     SUNNY     81  57  44 NW10      30.08R
WARSAW*        SUNNY     81  61  50 W10       30.07R
ANGOLA*        SUNNY     81  61  50 NW8       30.04R
FORT WAYNE     MOSUNNY   81  59  47 NW9       30.06S
HUNTINGTON*    SUNNY     79  60  52 W6        30.06S
PERU/GRISSOM   SUNNY     80  59  48 NW8       30.07S
MARION*        SUNNY     78  58  50 NW7       30.09S

$$
INZ028>050-301700-
CENTRAL INDIANA

CITY           SKY/WX    TMP DP  RH WIND       PRES   REMARKS
LAFAYETTE      SUNNY     80  60  50 NW8       30.09R
KOKOMO*        SUNNY     81  61  50 NW14      30.08S
MUNCIE*        SUNNY     79  60  52 NW10      30.09R
INDIANAPOLIS   MOSUNNY   82  58  43 NW12      30.10R

$$
MIZ043>046-050>051-056>058-064>065-071>073-077>080-301700-
SOUTHWEST LOWER MICHIGAN

CITY           SKY/WX    TMP DP  RH WIND       PRES   REMARKS
BATTLE CREEK   SUNNY     81  58  45 W18G25    30.02S
BENTON HARBOR  SUNNY     77  61  57 W15       30.05R
COLDWATER*     SUNNY     79  55  43 NW12G17   30.03S
HILLSDALE*     SUNNY     80  58  47 NW13      30.03S
HOLLAND        SUNNY     77  60  55 W9G21     30.03R
GRAND RAPIDS   MOSUNNY   82  55  39 NW16G28   30.00R
KALAMAZOO      SUNNY     82  57  42 NW14G22   30.03R
STURGIS*       SUNNY     79  61  53 NW9G22    30.04R
THREE RIVERS*  FAIR      81  55  41 NW15G22   30.04R

$$
OHZ001>008-015>018-024>025-301700-
NORTHWEST OHIO

CITY           SKY/WX    TMP DP  RH WIND       PRES   REMARKS
WAUSEON*       FAIR      81  63  54 NW10      30.02S
DEFIANCE       SUNNY     82  58  43 NW12      30.03S
FINDLAY        SUNNY     81  62  52 W9        30.02S
TOLEDO EXPRESS SUNNY     79  61  53 W12       30.01R
TOLEDO METCALF SUNNY     82  58  43 NW12      30.01S
LIMA           SUNNY     80  60  50 NW10      30.05S

$$
AND FOR LAKE MICHIGAN COASTAL AND OPEN LAKE BUOY OBSERVATIONS

STATION/POSITION TEMP    WIND        PRES    VSBY  WAVE
                 AIR SEA DIR/SP/G                  HT/PER
                 (F)     (DEG/KT/KT) (MB)    (MI)  (FT/S)
CALUMET HARBOR    80     270/  5/ 10   N/A
MICHIGAN CITY     72     240/ 12/ 14   N/A
BURNS HARBOR      73     270/  8/ 10 1018.3S
SAINT JOSEPH      76     220/  9/ 12 1018.6R
4 MI NW BRIDGMAN  72 73  300/ 12/ 14   N/A           3/ 5
MICHIGAN CITY     73 73  280/  8/ 12   N/A           3/ 5

$$
&&


USA.gov is the U.S. government's official web portal to all federal, state and local government web resources and services.